www.pogodaiklimat.ru

Погода и климат >> Архив погоды >> Австралия >> Западная Австралия >> Уиндем


ПОГОДА в Уиндеме

  • Прогноз погоды в Уиндеме
  • Монитор погоды в Уиндеме

АРХИВ ПОГОДЫ в Уиндеме

Время (UTC), дата Ветер
(напр.,м/с)
 
Видим.   Явления Облачность Т
(С)
Тd
(С)
f
(%)
Тe
(С)
Тes
(С)
Комфортность P
(гПа)
Po
(гПа)
Тmin
(С)
Tmax
(С)
R
(мм)
R24
(мм)
S
(см)
22 13.01 З 3 н/о н/о +26.3 +22.6 80 +35 +35 очень
душно
1006.2 1005.7
23 13.01 ЮЗ 3 н/о н/о +27.6 +22.5 74 +36 +36 очень
душно
1006.0 1005.5
00 14.01 ЮЗ 4 н/о н/о +27.8 +22.7 74 +37 +37 очень
душно
1006.4 1005.9
01 14.01 ЮЗ 2 н/о н/о +29.4 +22.9 68 +39 +39 очень
душно
1006.7 1006.2 +25.8
02 14.01 ЮЗ 3 н/о н/о +32.0 +22.1 56 +41 +41 опасность
перегрева
1006.5 1006.0
03 14.01 ЮВ 2 н/о н/о +32.1 +22.2 56 +41 +41 опасность
перегрева
1006.1 1005.6
04 14.01 В 4 н/о н/о +32.9 +22.0 53 +42 +42 опасность
перегрева
1005.6 1005.1
05 14.01 ЮВ 2 н/о н/о +34.6 +22.3 49 +44 +44 опасность
перегрева
1004.8 1004.3
06 14.01 Ю 3 н/о н/о +34.6 +21.6 47 +43 +43 опасность
перегрева
1003.7 1003.2
07 14.01 С 7 н/о н/о +32.6 +23.0 57 +43 +43 опасность
перегрева
1003.1 1002.6
08 14.01 С 7 н/о н/о +32.5 +22.9 57 +43 +43 опасность
перегрева
1003.3 1002.8
09 14.01 ЮЗ 3 н/о н/о +33.2 +22.3 53 +42 +42 опасность
перегрева
1004.4 1003.9
10 14.01 С 4 н/о н/о +30.4 +23.6 67 +41 +41 опасность
перегрева
1005.6 1005.1
11 14.01 СВ 3 н/о н/о +27.0 +23.7 82 +37 +37 очень
душно
1006.3 1005.8
12 14.01 В 2 н/о н/о +27.8 +24.6 83 +39 +39 очень
душно
1007.1 1006.6
13 14.01 ЮВ 5 н/о {туман} н/о +26.9 +24.4 86 +38 +38 очень
душно
1007.8 1007.3 +36.6
14 14.01 В 4 н/о н/о +26.5 +24.2 87 +37 +37 очень
душно
1007.7 1007.2
15 14.01 В 5 н/о н/о +26.6 +24.1 86 +37 +37 очень
душно
1007.9 1007.4
16 14.01 В 3 н/о н/о +26.7 +24.4 87 +37 +37 очень
душно
1007.0 1006.5
17 14.01 В 4 н/о н/о +26.6 +24.3 87 +37 +37 очень
душно
1006.6 1006.1
18 14.01 В 4 н/о н/о +26.6 +24.6 89 +38 +38 очень
душно
1006.1 1005.6
19 14.01 В 5 н/о н/о +26.4 +24.8 91 +38 +38 очень
душно
1005.9 1005.4
20 14.01 В 3 н/о н/о +26.3 +24.5 90 +37 +37 очень
душно
1005.7 1005.2
21 14.01 В 2 н/о н/о +26.1 +24.3 90 +36 +36 очень
душно
1006.4 1005.9
22 14.01 В 2 н/о н/о +27.8 +24.4 82 +39 +39 очень
душно
1007.2 1006.7
23 14.01 ЮВ 3 н/о н/о +28.9 +24.2 76 +40 +40 очень
душно
1007.6 1007.1
00 15.01 В 3 н/о н/о +29.9 +24.1 71 +41 +41 опасность
перегрева
1007.6 1007.1
01 15.01 В 4 н/о {туман} н/о +31.9 +24.2 64 +44 +44 опасность
перегрева
1007.8 1007.3 +26.1
02 15.01 В 3 н/о н/о +33.1 +24.0 59 +45 +45 опасность
перегрева
1007.6 1007.1
03 15.01 С 2 н/о н/о +34.2 +22.6 51 +44 +44 опасность
перегрева
1006.6 1006.1
04 15.01 СВ 2 н/о н/о +34.3 +22.0 49 +43 +43 опасность
перегрева
1006.0 1005.5
05 15.01 С 5 н/о н/о +33.3 +22.4 53 +43 +43 опасность
перегрева
1005.4 1004.9
06 15.01 С 5 н/о н/о +35.1 +22.1 47 +44 +44 опасность
перегрева
1004.8 1004.3
07 15.01 С 6 н/о н/о +34.4 +23.4 53 +45 +45 опасность
перегрева
1004.2 1003.7
08 15.01 С 5 н/о н/о +34.9 +23.2 51 +45 +45 опасность
перегрева
1003.9 1003.4
09 15.01 С 5 н/о н/о +33.3 +22.1 52 +42 +42 опасность
перегрева
1004.4 1003.9
10 15.01 С 5 н/о н/о +32.3 +24.1 62 +44 +44 опасность
перегрева
1005.3 1004.8
11 15.01 С 6 н/о н/о +31.0 +24.6 69 +44 +44 опасность
перегрева
1006.0 1005.5
12 15.01 С 5 н/о н/о +30.6 +25.2 73 +44 +44 опасность
перегрева
1007.0 1006.5
13 15.01 С 5 н/о н/о +30.1 +24.9 74 +43 +43 опасность
перегрева
1007.2 1006.7 +35.9
14 15.01 С 3 н/о н/о +30.1 +24.3 71 +42 +42 опасность
перегрева
1007.5 1007.0
15 15.01 С 3 н/о н/о +29.6 +24.7 75 +42 +42 опасность
перегрева
1007.0 1006.5
16 15.01 СЗ 5 н/о н/о +29.7 +24.3 73 +42 +42 опасность
перегрева
1006.6 1006.1
17 15.01 СЗ 3 н/о н/о +28.9 +24.7 78 +41 +41 опасность
перегрева
1006.6 1006.1
18 15.01 СЗ 2 н/о н/о +28.4 +24.8 81 +41 +41 опасность
перегрева
1006.5 1006.0
19 15.01 СЗ 3 н/о н/о +28.3 +24.5 80 +40 +40 очень
душно
1006.3 1005.8
20 15.01 З 3 н/о н/о +28.8 +24.4 77 +40 +40 очень
душно
1006.4 1005.9
21 15.01 СЗ 2 н/о н/о +27.7 +24.7 84 +39 +39 очень
душно
1007.2 1006.7
22 15.01 З 3 н/о н/о +29.0 +24.3 76 +41 +41 опасность
перегрева
1007.8 1007.3
23 15.01 З 3 н/о н/о +30.2 +24.4 71 +42 +42 опасность
перегрева
1008.2 1007.7
00 16.01 З 3 н/о н/о +31.1 +23.5 64 +42 +42 опасность
перегрева
1007.9 1007.4
01 16.01 З 3 н/о н/о +32.9 +23.0 56 +43 +43 опасность
перегрева
1008.2 1007.7 +27.6
02 16.01 С 3 н/о н/о +33.7 +22.1 51 +43 +43 опасность
перегрева
1007.9 1007.4
03 16.01 С 3 н/о н/о +34.5 +22.9 51 +44 +44 опасность
перегрева
1007.1 1006.6
04 16.01 З 3 н/о н/о +35.6 +21.5 44 +43 +43 опасность
перегрева
1006.2 1005.7
05 16.01 С 3 н/о н/о +36.9 +21.5 41 +44 +44 опасность
перегрева
1005.3 1004.8
06 16.01 СЗ 3 н/о н/о +37.3 +20.1 37 +43 +43 опасность
перегрева
1004.1 1003.6
07 16.01 С 4 н/о н/о +37.0 +19.4 36 +42 +42 опасность
перегрева
1003.0 1002.5
08 16.01 СВ 3 н/о н/о +37.3 +21.0 39 +44 +44 опасность
перегрева
1002.7 1002.2
09 16.01 С 6 н/о н/о +35.5 +22.8 48 +45 +45 опасность
перегрева
1003.0 1002.5
10 16.01 СВ 6 н/о н/о +33.2 +22.6 54 +43 +43 опасность
перегрева
1004.5 1004.0
11 16.01 В 4 н/о н/о +31.6 +21.5 55 +40 +40 очень
душно
1005.8 1005.3
12 16.01 В 4 н/о н/о +31.7 +22.7 59 +41 +41 опасность
перегрева
1006.7 1006.2
13 16.01 СВ 3 н/о н/о +31.2 +24.3 67 +43 +43 опасность
перегрева
1007.4 1006.9 +38.2
14 16.01 С 2 н/о н/о +31.1 +24.0 66 +43 +43 опасность
перегрева
1007.4 1006.9
15 16.01 СЗ 2 н/о н/о +30.6 +24.3 69 +43 +43 опасность
перегрева
1007.2 1006.7
16 16.01 СЗ 3 н/о н/о +30.4 +24.3 70 +42 +42 опасность
перегрева
1005.9 1005.4
17 16.01 З 5 н/о н/о +31.1 +23.2 63 +42 +42 опасность
перегрева
1005.4 1004.9
18 16.01 СЗ 4 н/о н/о +30.6 +23.5 66 +41 +41 опасность
перегрева
1005.3 1004.8
19 16.01 СЗ 4 н/о н/о +29.6 +23.8 71 +41 +41 опасность
перегрева
1005.5 1005.0
20 16.01 СЗ 2 н/о н/о +29.2 +24.1 74 +41 +41 опасность
перегрева
1005.8 1005.3
21 16.01 В 13 н/о н/о +25.2 +21.7 81 +32 +32 очень
душно
1008.0 1007.5
22 16.01 В 5 н/о в посл. час дождь {туман} н/о +23.6 +22.2 92 +31 +31 очень
душно
1009.5 1009.0
23 16.01 Ю 3 н/о н/о +23.8 +22.4 92 +31 +31 очень
душно
1008.8 1008.3
00 17.01 З 4 н/о н/о +24.5 +22.9 91 +32 +32 очень
душно
1008.8 1008.3
01 17.01 ЮЗ 5 н/о в посл. час дождь {туман} н/о +25.1 +23.5 91 +34 +34 очень
душно
1008.4 1007.9 +23.6
02 17.01 З 1 н/о н/о +26.2 +23.1 83 +35 +35 очень
душно
1007.9 1007.4
03 17.01 ЮЗ 2 н/о н/о +28.6 +22.6 70 +38 +38 очень
душно
1007.0 1006.5
04 17.01 ЮЗ 3 н/о {туман} н/о +31.8 +24.7 66 +45 +45 опасность
перегрева
1005.7 1005.2
05 17.01 З 2 н/о н/о +32.6 +23.0 57 +43 +43 опасность
перегрева
1004.8 1004.3
06 17.01 СЗ 2 н/о н/о +33.3 +22.7 54 +43 +43 опасность
перегрева
1003.5 1003.0
07 17.01 С 2 н/о {туман} н/о +33.5 +22.6 53 +43 +43 опасность
перегрева
1002.3 1001.8
08 17.01 СЗ 3 н/о н/о +33.8 +23.5 55 +45 +45 опасность
перегрева
1002.7 1002.2
09 17.01 С 2 н/о н/о +33.6 +23.0 54 +44 +44 опасность
перегрева
1002.9 1002.4
10 17.01 СЗ 3 н/о н/о +31.8 +23.9 63 +43 +43 опасность
перегрева
1004.0 1003.5
11 17.01 СЗ 3 н/о н/о +30.3 +25.6 76 +45 +45 опасность
перегрева
1004.7 1004.2
12 17.01 С 4 н/о н/о +30.9 +26.2 76 +47 +47 опасность
перегрева
1005.7 1005.2
13 17.01 С 4 н/о н/о +30.7 +26.2 77 +46 +46 опасность
перегрева
1006.5 1006.0 +34.7
14 17.01 С 3 н/о н/о +30.0 +26.0 79 +45 +45 опасность
перегрева
1007.0 1006.5
15 17.01 С 3 н/о н/о +29.6 +26.0 81 +44 +44 опасность
перегрева
1006.5 1006.0
16 17.01 СЗ 3 н/о н/о +29.4 +25.4 79 +43 +43 опасность
перегрева
1005.6 1005.1
17 17.01 З 3 н/о н/о +29.6 +23.5 70 +40 +40 очень
душно
1005.0 1004.5
18 17.01 ЮЗ 3 н/о н/о +29.1 +23.5 72 +40 +40 очень
душно
1004.8 1004.3
19 17.01 штиль 0 н/о н/о +28.2 +24.2 79 +39 +39 очень
душно
1004.8 1004.3
20 17.01 ЮЗ 2 н/о н/о +27.7 +24.5 83 +39 +39 очень
душно
1005.1 1004.6
21 17.01 В 2 н/о н/о +27.7 +25.9 90 +41 +41 опасность
перегрева
1005.7 1005.2
22 17.01 В 4 н/о н/о +28.2 +26.2 89 +43 +43 опасность
перегрева
1006.8 1006.3
23 17.01 В 4 н/о н/о +28.7 +26.3 87 +44 +44 опасность
перегрева
1007.3 1006.8
00 18.01 Ю 7 н/о н/о +28.2 +23.1 74 +38 +38 очень
душно
1007.3 1006.8
01 18.01 Ю 3 н/о н/о +30.0 +23.7 69 +41 +41 опасность
перегрева
1007.1 1006.6 +23.6
02 18.01 З 4 н/о н/о +31.6 +24.2 65 +44 +44 опасность
перегрева
1006.5 1006.0
03 18.01 Ю 4 н/о н/о +34.3 +22.4 50 +43 +43 опасность
перегрева
1006.2 1005.7
04 18.01 СЗ 2 н/о н/о +35.2 +22.5 48 +44 +44 опасность
перегрева
1005.7 1005.2
05 18.01 ЮВ 5 н/о н/о +35.4 +22.0 46 +44 +44 опасность
перегрева
1005.0 1004.5
06 18.01 ЮВ 6 н/о н/о +36.2 +20.0 39 +42 +42 опасность
перегрева
1003.9 1003.4
07 18.01 ЮВ 5 н/о н/о +33.8 +20.6 46 +41 +41 опасность
перегрева
1003.4 1002.9
08 18.01 СВ 8 н/о н/о +28.9 +22.2 67 +38 +38 очень
душно
1003.8 1003.3
09 18.01 ЮВ 4 н/о н/о +30.2 +21.8 61 +39 +39 очень
душно
1004.2 1003.7
10 18.01 ЮВ 5 н/о н/о +28.3 +22.8 72 +38 +38 очень
душно
1005.2 1004.7
11 18.01 В 4 н/о н/о +26.9 +23.4 81 +36 +36 очень
душно
1006.2 1005.7
12 18.01 ЮВ 2 н/о н/о +27.9 +23.5 77 +38 +38 очень
душно
1007.0 1006.5
13 18.01 СВ 3 н/о {туман} н/о +27.4 +23.6 80 +37 +37 очень
душно
1007.3 1006.8 +36.8
14 18.01 ЮВ 4 н/о н/о +27.5 +23.9 81 +38 +38 очень
душно
1007.8 1007.3
15 18.01 В 3 н/о н/о +27.3 +23.3 79 +37 +37 очень
душно
1007.3 1006.8
16 18.01 В 3 н/о н/о +27.6 +24.0 81 +38 +38 очень
душно
1006.6 1006.1
17 18.01 В 3 н/о н/о +27.5 +23.9 81 +38 +38 очень
душно
1006.5 1006.0
18 18.01 В 6 н/о н/о +27.9 +24.1 80 +39 +39 очень
душно
1007.9 1007.4
19 18.01 В 7 н/о н/о +26.6 +21.1 72 +34 +34 очень
душно
1007.5 1007.0
20 18.01 СВ 3 н/о н/о +26.2 +21.4 75 +33 +33 очень
душно
1007.5 1007.0
21 18.01 З 3 н/о н/о +26.7 +21.5 73 +34 +34 очень
душно
1007.2 1006.7
22 18.01 СЗ 5 н/о н/о +26.9 +22.5 77 +35 +35 очень
душно
1008.0 1007.5
23 18.01 З 3 н/о н/о +28.7 +21.7 66 +37 +37 очень
душно
1008.2 1007.7
00 19.01 Ю 3 н/о н/о +29.9 +23.1 67 +40 +40 очень
душно
1008.8 1008.3
01 19.01 Ю 3 н/о н/о +32.3 +22.4 56 +42 +42 опасность
перегрева
1008.7 1008.2 +26.2
02 19.01 ЮВ 3 н/о н/о +33.6 +20.0 45 +40 +40 очень
душно
1008.4 1007.9
03 19.01 В 3 н/о н/о +34.9 +19.3 40 +40 +40 очень
душно
1007.9 1007.4
04 19.01 СВ 4 н/о н/о +35.5 +20.2 41 +42 +42 опасность
перегрева
1006.9 1006.4
05 19.01 СВ 5 н/о н/о +35.9 +19.8 39 +41 +41 опасность
перегрева
1006.1 1005.6
06 19.01 В 4 н/о н/о +36.9 +17.5 32 +40 +40 очень
душно
1005.4 1004.9
07 19.01 СВ 3 н/о н/о +36.6 +19.1 36 +41 +41 опасность
перегрева
1004.5 1004.0
08 19.01 СВ 3 н/о н/о +36.9 +19.4 36 +42 +42 опасность
перегрева
1003.8 1003.3
09 19.01 СВ 4 н/о н/о +36.3 +20.1 39 +42 +42 опасность
перегрева
1004.2 1003.7
10 19.01 СВ 3 н/о н/о +34.6 +20.6 44 +41 +41 опасность
перегрева
1005.3 1004.8
11 19.01 СВ 2 н/о н/о +32.9 +22.7 55 +43 +43 опасность
перегрева
1006.2 1005.7
12 19.01 С 5 н/о н/о +32.2 +22.9 58 +42 +42 опасность
перегрева
1007.3 1006.8
13 19.01 С 3 н/о н/о +31.8 +22.8 59 +42 +42 опасность
перегрева
1007.8 1007.3 +37.6
14 19.01 С 3 н/о н/о +31.6 +22.9 60 +42 +42 опасность
перегрева
1007.7 1007.2
15 19.01 З 1 н/о н/о +31.6 +22.9 60 +42 +42 опасность
перегрева
1007.5 1007.0
16 19.01 ЮВ 3 н/о н/о +30.0 +24.6 73 +43 +43 опасность
перегрева
1007.0 1006.5
17 19.01 В 3 н/о н/о +29.4 +24.5 75 +42 +42 опасность
перегрева
1006.3 1005.8
18 19.01 В 3 н/о н/о +28.9 +24.9 79 +41 +41 опасность
перегрева
1005.9 1005.4
19 19.01 ЮВ 3 н/о н/о +28.8 +24.8 79 +41 +41 опасность
перегрева
1005.7 1005.2
20 19.01 В 2 н/о н/о +28.2 +24.6 81 +40 +40 очень
душно
1005.9 1005.4
21 19.01 В 2 н/о н/о +28.0 +25.0 84 +40 +40 очень
душно
1006.6 1006.1
22 19.01 В 3 н/о н/о +29.7 +25.4 78 +44 +44 опасность
перегрева
1007.4 1006.9
23 19.01 В 1 н/о н/о +32.1 +24.7 65 +45 +45 опасность
перегрева
1007.9 1007.4
00 20.01 ЮЗ 2 н/о н/о +33.1 +24.0 59 +45 +45 опасность
перегрева
1008.4 1007.9
01 20.01 Ю 2 н/о н/о +35.0 +22.0 47 +44 +44 опасность
перегрева
1008.0 1007.5 +27.8
02 20.01 ЮВ 3 н/о н/о +36.1 +21.5 43 +44 +44 опасность
перегрева
1007.3 1006.8
03 20.01 ЮВ 3 н/о н/о +37.7 +21.4 39 +45 +45 опасность
перегрева
1006.6 1006.1
04 20.01 ЮВ 6 н/о н/о +38.4 +20.7 36 +45 +45 опасность
перегрева
1005.7 1005.2
05 20.01 ЮВ 3 н/о н/о +38.1 +20.4 36 +44 +44 опасность
перегрева
1004.3 1003.8
06 20.01 Ю 2 н/о н/о +39.0 +19.8 33 +44 +44 опасность
перегрева
1003.6 1003.1
07 20.01 Ю 7 н/о н/о +35.1 +21.4 45 +43 +43 опасность
перегрева
1003.5 1003.0
08 20.01 В 5 н/о н/о +33.8 +22.6 52 +43 +43 опасность
перегрева
1004.2 1003.7
09 20.01 СВ 3 н/о н/о +32.8 +22.6 55 +42 +42 опасность
перегрева
1004.1 1003.6
10 20.01 ЮВ 3 н/о н/о +32.3 +23.0 58 +42 +42 опасность
перегрева
1005.0 1004.5
11 20.01 В 1 н/о н/о +31.9 +23.2 60 +42 +42 опасность
перегрева
1006.3 1005.8
12 20.01 С 3 н/о н/о +32.5 +24.5 63 +45 +45 опасность
перегрева
1006.3 1005.8
13 20.01 СЗ 3 н/о н/о +31.1 +25.0 70 +45 +45 опасность
перегрева
1006.1 1005.6 +40.0
14 20.01 С 2 н/о н/о +31.2 +24.8 69 +44 +44 опасность
перегрева
1006.9 1006.4
15 20.01 С 2 н/о н/о +31.2 +25.1 70 +45 +45 опасность
перегрева
1006.6 1006.1
16 20.01 ЮВ 3 н/о н/о +30.1 +24.9 74 +43 +43 опасность
перегрева
1005.8 1005.3
17 20.01 СВ 3 н/о н/о +29.8 +25.1 76 +43 +43 опасность
перегрева
1005.2 1004.7
18 20.01 В 15 н/о н/о +28.7 +20.7 62 +36 +36 очень
душно
1006.4 1005.9
19 20.01 В 7 н/о туман н/о +24.0 +23.1 95 +32 +32 очень
душно
1007.6 1007.1
20 20.01 В 3 н/о н/о +24.4 +23.4 94 +33 +33 очень
душно
1006.9 1006.4
21 20.01 С 3 н/о н/о +24.5 +23.3 93 +33 +33 очень
душно
1006.9 1006.4
22 20.01 З 3 н/о в посл. час дождь {туман} н/о +24.9 +23.1 90 +33 +33 очень
душно
1007.8 1007.3

 

Местоположение метеостанции Уиндем (Западная Австралия, Австралия): широта -15.50 долгота 128.15 высота над уровнем моря 4 м.

В архиве по умолчанию представлена погода в Уиндеме за последнюю неделю. Архивные данные за месяц целиком и за предыдущие месяцы, начиная с января 2011 года, Вы можете получить, выбрав интересующий диапазон дат из раскрывающегося списка и нажав кнопку "Ввод!".


*Определитесь, кто Вы:
робот инопланетянин человек

Внимание! Время в таблицах - всемирное. Для получения местного времени необходимо прибавить поправку, которая равна 8 ч.

Смотрите также архив погоды в соседних городах и на ближайших метеорологических станциях:

Погода в Кунунарре (Западная Австралия, Австралия) (68 км)
Погода в Аэропорту Аргайл (Западная Австралия, Австралия) (130 км)
Погода в Порт Китс (Северная территория, Австралия) (203 км)
Погода в Калумбуру (Западная Австралия, Австралия) (209 км)
Погода в Трускотте (Западная Австралия, Австралия) (247 км)
Погода на Острове Троутон (Западная Австралия, Австралия) (290 км)
Погода в Манбуллу Ксиро (Северная территория, Австралия) (291 км)
Погода в Холс Крик (Западная Австралия, Австралия) (308 км)
Погода в Виктория-Ривер (Северная территория, Австралия) (323 км)
Погода на Маяке Кейп-Дон (Северная территория, Австралия) (375 км)

Пояснения к столбцам:

Ветер - указаны скорость ветра в м/с - средняя за 10 мин, порывы в срок и между сроками (в фигурных скобках) и направление, откуда дует ветер: С - северный, СВ - северо-восточный, В - восточный, ЮВ - юго-восточный, Ю - южный, ЮЗ - юго-западный, З - западный, СЗ - северо-западный.
Видимость - горизонтальная дальность видимости в метрах или километрах. При видимости от 1 до 10 км при отсутствии осадков обычно наблюдается дымка, при ухудшении видимости до 1 км и менее - туман. В сухую погоду видимость может ухудшаться дымом, пылью или мглою.
Явления - указаны атмосферные явления, наблюдавшиеся в срок или в последний час перед сроком; фигурными скобками обозначены явления, наблюдавшиеся между сроками (за 1-3 часа до срока); квадратными скобками обозначены град или гололедные отложения с указанием их диаметра в мм.
Облачность - указаны через наклонную черту общая и нижняя облачность в баллах и высота нижней границы облаков в метрах; квадратными скобками обозначены формы облаков: Ci - перистые, Cs - перисто-слоистые, Cc - перисто-кучевые, Ac - высококучевые, As - высокослоистые, Sc - слоисто-кучевые, Ns - слоисто-дождевые, Cu - кучевые, Cb - кучево-дождевые. Подробнее классификацию облаков см. в Атласе облаков (PDF).
T - Температура воздуха - температура, измеренная на высоте 2 м над землей.
Td - Температура точки росы - температура, при понижении до которой содержащийся в воздухе водяной пар достигнет насыщения.
f - Относительная влажность воздуха - влажноcть воздуха, измеренная на высоте 2 м над землей.
Te - Эффективная температура - температура, которую ощущает одетый по сезону человек в тени. Характеристика душности погоды. При расчете учитывается влияние влажности воздуха и скорости ветра на теплоощущения человека.
Tes - Эффективная температура на солнце - температура, которую ощущает человек, с поправкой на солнечный нагрев. Характеристика знойности погоды. Зависит от высоты солнца над горизонтом, облачности и скорости ветра. Ночью, в пасмурную погоду, а также при ветре 12 м/с и более поправка равна нулю.
P - Атмосферное давление - приведенное к уровню моря атмосферное давление.
Po - Атмосферное давление - измеренное на уровне метеостанции атмосферное давление.
Tmin - Минимальная температура - минимум температуры воздуха на высоте 2 м над землей.
Tmax - Максимальная температура - максимум температуры воздуха на высоте 2 м над землей.
R - Количество осадков - Количество выпавших осадков за период времени, мм. При наведении курсора мыши на число - период времени, за который выпало указанное количество осадков.
R24 - Количество осадков - Количество выпавших осадков за 24 часа, мм.
S - Снежный покров - Высота снежного покрова, см. При наведении курсора мыши на число - состояние снежного покрова и степень покрытия местности в баллах.